TimeEST,TemperatureF,Dew PointF,Humidity,Sea Level PressureIn,VisibilityMPH,Wind Direction,Wind SpeedMPH,Gust SpeedMPH,PrecipitationIn,Events,Conditions,WindDirDegrees,DateUTC
12:53 AM,35.1,28.0,76,30.56,10.0,North,6.9,-,N/A,,Clear,10,2011-12-12 05:53:00
1:53 AM,35.6,28.4,75,30.53,10.0,North,9.2,-,N/A,,Clear,10,2011-12-12 06:53:00
2:53 AM,36.0,28.9,76,30.53,10.0,NNE,9.2,-,N/A,,Clear,20,2011-12-12 07:53:00
3:53 AM,36.0,28.9,76,30.52,10.0,North,8.1,-,N/A,,Clear,360,2011-12-12 08:53:00
4:53 AM,35.1,28.9,78,30.51,10.0,North,9.2,-,N/A,,Clear,360,2011-12-12 09:53:00
5:53 AM,35.1,28.9,78,30.52,10.0,North,8.1,-,N/A,,Overcast,360,2011-12-12 10:53:00
6:53 AM,36.0,28.9,76,30.52,10.0,North,8.1,-,N/A,,Overcast,10,2011-12-12 11:53:00
7:53 AM,37.0,30.0,76,30.53,10.0,North,9.2,-,N/A,,Overcast,10,2011-12-12 12:53:00
8:53 AM,39.0,30.9,73,30.53,10.0,North,9.2,-,N/A,,Overcast,10,2011-12-12 13:53:00
9:53 AM,41.0,33.1,73,30.56,10.0,NNE,4.6,-,N/A,,Mostly Cloudy,30,2011-12-12 14:53:00
10:53 AM,44.1,34.0,68,30.56,10.0,North,6.9,-,N/A,,Partly Cloudy,350,2011-12-12 15:53:00
11:53 AM,45.0,36.0,71,30.53,10.0,North,6.9,-,N/A,,Scattered Clouds,350,2011-12-12 16:53:00
12:53 PM,46.0,36.0,68,30.50,10.0,NNW,9.2,-,N/A,,Mostly Cloudy,340,2011-12-12 17:53:00
1:53 PM,48.0,36.0,63,30.48,10.0,North,5.8,-,N/A,,Partly Cloudy,360,2011-12-12 18:53:00
2:53 PM,50.0,37.9,63,30.46,10.0,North,5.8,-,N/A,,Partly Cloudy,350,2011-12-12 19:53:00
3:53 PM,50.0,37.0,61,30.46,10.0,NNW,8.1,-,N/A,,Partly Cloudy,340,2011-12-12 20:53:00
4:53 PM,48.0,37.0,66,30.45,10.0,North,5.8,-,N/A,,Overcast,360,2011-12-12 21:53:00
5:53 PM,44.6,35.6,71,30.46,10.0,North,4.6,-,N/A,,Partly Cloudy,350,2011-12-12 22:53:00
6:53 PM,44.1,37.0,76,30.46,10.0,North,3.5,-,N/A,,Mostly Cloudy,360,2011-12-12 23:53:00
7:53 PM,41.0,36.0,82,30.48,10.0,Calm,Calm,-,N/A,,Clear,0,2011-12-13 00:53:00
8:53 PM,39.9,34.0,79,30.48,10.0,NNW,3.5,-,N/A,,Clear,330,2011-12-13 01:53:00
9:53 PM,37.9,33.1,83,30.48,10.0,Calm,Calm,-,N/A,,Clear,0,2011-12-13 02:53:00
10:53 PM,35.1,32.0,89,30.48,10.0,NNW,3.5,-,N/A,,Clear,330,2011-12-13 03:53:00
11:53 PM,37.0,33.1,86,30.47,10.0,NNW,3.5,-,N/A,,Clear,340,2011-12-13 04:53:00